Location: Tamazert
(32.6352°N, 5.2072°W)
Time: 02:53:23
(UTC+00:00)

Vanguard 1 Rocket - Pass Details

Date: 13 October 2022
Orbit: 650 x 4225 km, 34.3° (Epoch: 05 December)

Event Time Altitude Azimuth Distance (km) Brightness Sun altitude
Rises 16:03:09 0° 232° (SW) 7,698 13.5 20.8°
Reaches altitude 10° 16:07:58 10° 230° (SW) 6,963 13.6 19.9°
Maximum altitude 16:33:32 70° 152° (SSE) 4,282 11.0 14.9°
Drops below altitude 10° 16:54:51 10° 74° (ENE) 6,011 11.0 10.6°
Sets 16:58:36 0° 73° (ENE) 6,661 11.1 9.8°
